W1REE Weather Reports


time (UTC)temp
F
wind
direction
speed
knots
gust
knots
rain 1hr
in
rain 24hr
in
rain mn
in
humidity
%
barometer
mb
20260906214854 88 334 0.9 0.9 0.00 0.00 0.00 32 1020.1
20260906214353 88 298 1.7 1.7 0.00 0.00 0.00 34 1020.4
20260906213853 88 347 0.9 0.9 0.00 0.00 0.00 33 1020.4
20260906213347 88 319 0.9 0.9 0.00 0.00 0.00 34 1020.5
20260906212845 88 348 0.0 0.0 0.00 0.00 0.00 35 1020.6
20260906212340 87 348 0.0 0.9 0.00 0.00 0.00 34 1020.6
20260906211840 87 339 0.0 0.9 0.00 0.00 0.00 33 1020.6
20260906211335 87 352 0.9 0.9 0.00 0.00 0.00 33 1020.7
20260906210830 87 25 0.9 1.7 0.00 0.00 0.00 32 1020.8
20260906210330 87 184 0.9 2.6 0.00 0.00 0.00 32 1020.8
20260906205826 87 354 0.9 1.7 0.00 0.00 0.00 34 1020.8
20260906205322 87 353 0.9 0.9 0.00 0.00 0.00 36 1021.0
20260906204818 87 356 0.9 0.9 0.00 0.00 0.00 34 1021.0
20260906204317 88 47 1.7 1.7 0.00 0.00 0.00 33 1021.1
20260906203816 87 15 0.9 1.7 0.00 0.00 0.00 34 1021.2
20260906203311 87 0 0.9 0.9 0.00 0.00 0.00 35 1020.8
20260906202808 87 357 0.0 0.0 0.00 0.00 0.00 38 1021.2
20260906202308 86 320 0.9 0.9 0.00 0.00 0.00 36 1021.1
20260906201803 86 359 0.9 1.7 0.00 0.00 0.00 36 1021.3
20260906201302 86 12 0.9 1.7 0.00 0.00 0.00 36 1021.6
20260906200758 87 344 0.0 0.9 0.00 0.00 0.00 37 1021.4
20260906200254 86 327 0.0 0.0 0.00 0.00 0.00 37 1021.6
20260906195749 86 7 0.9 0.9 0.00 0.00 0.00 36 1021.4
20260906195245 86 20 0.9 1.7 0.00 0.00 0.00 34 1021.8
20260906194741 86 1 0.9 0.9 0.00 0.00 0.00 34 1021.6
20260906194236 87 333 1.7 2.6 0.00 0.00 0.00 32 1021.8
20260906193732 87 311 2.6 3.5 0.00 0.00 0.00 32 1021.8
20260906193231 87 352 0.9 1.7 0.00 0.00 0.00 33 1022.2
20260906192728 86 356 0.9 0.9 0.00 0.00 0.00 35 1022.0
20260906192222 86 12 0.9 0.9 0.00 0.00 0.00 34 1022.0
20260906191721 87 347 0.9 1.7 0.00 0.00 0.00 33 1022.0
20260906191216 87 357 0.0 0.9 0.00 0.00 0.00 33 1022.0
20260906190716 86 337 0.9 0.9 0.00 0.00 0.00 36 1022.2
20260906190210 86 11 1.7 1.7 0.00 0.00 0.00 33 1022.4
20260906185709 86 318 0.9 0.9 0.00 0.00 0.00 35 1022.3
20260906185208 85 342 0.9 0.9 0.00 0.00 0.00 36 1022.5
20260906184703 85 349 0.9 0.9 0.00 0.00 0.00 34 1022.6
20260906184159 85 354 0.0 0.0 0.00 0.00 0.00 36 1022.6
20260906183654 86 81 2.6 2.6 0.00 0.00 0.00 33 1022.8
20260906183150 86 352 0.0 0.9 0.00 0.00 0.00 31 1022.9
20260906182650 86 15 0.9 0.9 0.00 0.00 0.00 32 1023.0
20260906182146 86 341 0.0 0.9 0.00 0.00 0.00 33 1023.1
20260906181641 86 29 1.7 2.6 0.00 0.00 0.00 31 1023.1
20260906181138 86 313 1.7 1.7 0.00 0.00 0.00 31 1023.4
20260906180633 86 4 0.9 0.9 0.00 0.00 0.00 33 1023.4
20260906180133 86 336 0.0 0.0 0.00 0.00 0.00 36 1023.6
20260906175631 86 343 0.0 0.0 0.00 0.00 0.00 34 1023.7
20260906175126 85 356 0.0 0.9 0.00 0.00 0.00 36 1023.8
20260906174624 84 340 0.0 0.9 0.00 0.00 0.00 35 1023.6
20260906174119 84 336 0.0 0.0 0.00 0.00 0.00 35 1023.8
20260906173614 84 338 0.9 0.9 0.00 0.00 0.00 35 1024.0
20260906173110 83 316 1.7 1.7 0.00 0.00 0.00 35 1024.1
20260906172609 83 36 1.7 1.7 0.00 0.00 0.00 35 1024.1
20260906172106 82 329 0.9 0.9 0.00 0.00 0.00 38 1024.1
20260906171604 80 321 0.0 0.0 0.00 0.00 0.00 39 1024.1
20260906171100 80 345 0.0 0.0 0.00 0.00 0.00 39 1024.2
20260906170556 80 345 0.0 0.9 0.00 0.00 0.00 38 1024.3
20260906170055 80 356 0.9 0.9 0.00 0.00 0.00 41 1024.3
20260906165553 79 333 0.9 0.9 0.00 0.00 0.00 39 1024.2
20260906165052 79 342 0.0 0.0 0.00 0.00 0.00 38 1024.2
20260906164552 79 341 0.9 1.7 0.00 0.00 0.00 36 1024.2
20260906164048 78 347 0.0 0.0 0.00 0.00 0.00 39 1024.3
20260906163543 77 346 0.0 0.9 0.00 0.00 0.00 37 1024.3
20260906163039 77 340 0.9 0.9 0.00 0.00 0.00 37 1024.4
20260906162536 77 303 0.0 0.0 0.00 0.00 0.00 39 1024.3
20260906162031 77 337 0.0 0.0 0.00 0.00 0.00 40 1024.2
20260906161526 77 333 0.0 0.0 0.00 0.00 0.00 43 1024.3
20260906161025 76 331 0.9 0.9 0.00 0.00 0.00 42 1024.2
20260906160524 76 327 0.0 0.0 0.00 0.00 0.00 42 1024.4
20260906160022 76 12 0.0 0.0 0.00 0.00 0.00 44 1024.2
20260906155520 75 12 0.0 0.0 0.00 0.00 0.00 42 1024.1
20260906155016 75 13 0.0 0.0 0.00 0.00 0.00 45 1024.3
20260906154512 75 13 0.0 0.0 0.00 0.00 0.00 47 1024.0
20260906154010 75 11 0.0 0.0 0.00 0.00 0.00 45 1024.3
20260906153509 75 10 0.0 0.0 0.00 0.00 0.00 43 1024.2
20260906153005 74 11 0.9 0.9 0.00 0.00 0.00 44 1024.1
20260906152459 74 10 0.0 0.0 0.00 0.00 0.00 47 1024.2
20260906151958 74 10 0.0 0.0 0.00 0.00 0.00 45 1024.1
20260906151454 75 10 0.0 0.0 0.00 0.00 0.00 50 1024.3
20260906150949 74 10 0.0 0.0 0.00 0.00 0.00 46 1024.2
20260906150444 74 34 1.7 1.7 0.00 0.00 0.00 42 1024.0
20260906145944 75 0 0.0 0.0 0.00 0.00 0.00 44 1024.0
20260906145444 75 0 0.0 0.0 0.00 0.00 0.00 43 1023.8
20260906144938 75 1 0.0 0.0 0.00 0.00 0.00 42 1023.7
20260906144432 75 1 0.0 0.0 0.00 0.00 0.00 42 1023.7
20260906143928 76 343 0.0 0.0 0.00 0.00 0.00 42 1024.0
20260906143424 76 323 0.9 0.9 0.00 0.00 0.00 42 1024.0
20260906142920 75 315 0.0 0.0 0.00 0.00 0.00 45 1024.1
20260906142419 74 314 0.0 0.0 0.00 0.00 0.00 45 1023.7
20260906141914 71 315 0.0 0.0 0.00 0.00 0.00 48 1023.7
20260906141408 71 314 0.0 0.0 0.00 0.00 0.00 49 1023.8
20260906140908 71 314 0.0 0.0 0.00 0.00 0.00 49 1023.8
20260906140403 69 314 0.0 0.0 0.00 0.00 0.00 51 1023.7
20260906135901 68 314 0.0 0.9 0.00 0.00 0.00 52 1023.8
20260906135400 65 312 0.0 0.0 0.00 0.00 0.00 58 1023.8
20260906134856 63 311 0.0 0.0 0.00 0.00 0.00 64 1023.8
20260906134350 63 311 0.0 0.9 0.00 0.00 0.00 66 1023.8
20260906133846 62 311 0.0 0.0 0.00 0.00 0.00 66 1023.5
20260906133342 61 311 0.0 0.0 0.00 0.00 0.00 67 1023.5
20260906132837 60 311 0.0 0.0 0.00 0.00 0.00 67 1023.5
20260906132332 60 311 0.0 0.0 0.00 0.00 0.00 68 1023.5
20260906131828 59 311 0.0 0.0 0.00 0.00 0.00 71 1023.2
20260906131323 59 311 0.0 0.0 0.00 0.00 0.00 70 1023.4
20260906130819 58 311 0.0 0.0 0.00 0.00 0.00 71 1023.5
20260906130318 58 311 0.0 0.0 0.00 0.00 0.00 73 1023.4
20260906125817 58 311 0.0 0.0 0.00 0.00 0.00 73 1023.4
20260906125310 58 311 0.0 0.9 0.00 0.00 0.00 73 1023.1
20260906124809 58 311 0.0 0.9 0.00 0.00 0.00 73 1023.4
20260906124306 58 311 0.0 0.9 0.00 0.00 0.00 74 1023.4
20260906123805 58 310 0.9 0.9 0.00 0.00 0.00 74 1023.4
20260906123300 58 311 0.9 0.9 0.00 0.00 0.00 73 1023.4
20260906122759 59 311 0.0 0.0 0.00 0.00 0.00 71 1023.6
20260906122255 59 311 0.0 0.0 0.00 0.00 0.00 71 1023.4
20260906121751 59 311 0.0 0.0 0.00 0.00 0.00 70 1023.4
20260906121247 59 311 0.0 0.9 0.00 0.00 0.00 70 1023.2
20260906120742 59 311 0.0 0.0 0.00 0.00 0.00 70 1023.4
20260906120239 59 311 0.0 0.9 0.00 0.00 0.00 71 1023.2
20260906115735 59 311 0.0 0.0 0.00 0.00 0.00 70 1023.2
20260906115230 59 310 0.0 0.0 0.00 0.00 0.00 69 1023.2
20260906114728 60 311 0.0 0.0 0.00 0.00 0.00 70 1023.2
20260906114224 61 311 0.0 0.0 0.00 0.00 0.00 66 1023.1
20260906113719 61 311 0.0 0.0 0.00 0.00 0.00 66 1023.2
20260906113219 61 311 0.0 0.0 0.00 0.00 0.00 65 1023.0
20260906112718 61 310 0.0 0.9 0.00 0.00 0.00 66 1023.1
20260906112215 62 311 0.0 0.0 0.00 0.00 0.00 65 1022.8
20260906111714 61 311 0.0 0.0 0.00 0.00 0.00 64 1023.0
20260906111209 62 311 0.0 0.0 0.00 0.00 0.00 63 1023.0
20260906110705 62 311 0.0 0.0 0.00 0.00 0.00 64 1022.6
20260906110200 63 311 0.0 0.0 0.00 0.00 0.00 63 1022.8
20260906105700 62 311 0.0 0.0 0.00 0.00 0.00 63 1022.8
20260906105156 62 311 0.9 0.9 0.00 0.00 0.00 64 1022.6
20260906104656 62 311 0.0 0.0 0.00 0.00 0.00 64 1022.6
20260906104155 62 311 0.0 0.0 0.00 0.00 0.00 62 1022.8
20260906103653 62 311 0.0 0.0 0.00 0.00 0.00 64 1022.9
20260906103148 62 311 0.0 0.0 0.00 0.00 0.00 67 1022.8
20260906102643 62 311 0.0 0.0 0.00 0.00 0.00 65 1022.8
20260906102143 62 311 0.0 0.0 0.00 0.00 0.00 64 1023.0
20260906101642 62 311 0.9 0.9 0.00 0.00 0.00 65 1022.9
20260906101137 62 311 0.0 0.0 0.00 0.00 0.00 66 1023.0
20260906100633 63 311 0.0 0.9 0.00 0.00 0.00 65 1023.1
20260906100128 63 311 0.9 0.9 0.00 0.00 0.00 65 1023.1
20260906095627 63 311 0.0 0.0 0.00 0.00 0.00 65 1023.2
20260906095123 63 311 0.0 0.0 0.00 0.00 0.00 64 1023.2
20260906094622 63 311 0.0 0.0 0.00 0.00 0.00 63 1023.1
20260906094118 64 311 0.0 0.0 0.00 0.00 0.00 64 1023.1
20260906093614 64 311 0.0 0.9 0.00 0.00 0.00 63 1023.2
20260906093114 64 311 0.0 0.0 0.00 0.00 0.00 62 1023.2
20260906092610 64 311 0.0 0.0 0.00 0.00 0.00 61 1023.4
20260906092105 64 311 0.0 0.0 0.00 0.00 0.00 59 1023.1
20260906091601 64 302 0.9 0.9 0.00 0.00 0.00 58 1022.9
20260906091057 64 302 0.0 0.0 0.00 0.00 0.00 59 1022.8
20260906090556 64 302 0.0 0.0 0.00 0.00 0.00 59 1022.8
20260906090056 65 302 0.0 0.0 0.00 0.00 0.00 58 1023.0
20260906085555 64 302 0.0 0.0 0.00 0.00 0.00 56 1022.8
20260906085050 64 302 0.0 0.0 0.00 0.00 0.00 58 1022.8
20260906084545 65 302 0.0 0.9 0.00 0.00 0.00 58 1022.8
20260906084043 66 302 0.0 0.0 0.00 0.00 0.00 55 1022.8
20260906083539 66 302 0.0 0.0 0.00 0.00 0.00 55 1022.6
20260906083039 66 301 0.0 0.0 0.00 0.00 0.00 53 1022.9
20260906082534 66 309 0.0 0.0 0.00 0.00 0.00 53 1022.9
20260906082030 66 309 0.0 0.9 0.00 0.00 0.00 54 1022.9
20260906081525 66 305 0.9 1.7 0.00 0.00 0.00 55 1023.0
20260906081022 67 291 0.0 0.0 0.00 0.00 0.00 57 1023.0
20260906080518 68 292 0.0 0.0 0.00 0.00 0.00 54 1023.0
20260906080014 68 292 0.0 0.9 0.00 0.00 0.00 53 1023.0
20260906075513 68 290 1.7 1.7 0.00 0.00 0.00 54 1023.2
20260906075008 68 287 1.7 1.7 0.00 0.00 0.00 54 1023.1
20260906074503 68 295 1.7 1.7 0.00 0.00 0.00 53 1023.1
20260906074001 67 291 1.7 2.6 0.00 0.00 0.00 56 1023.1
20260906073456 67 306 1.7 1.7 0.00 0.00 0.00 58 1023.0
20260906072952 66 312 0.0 0.9 0.00 0.00 0.00 60 1023.2
20260906072447 65 308 0.9 1.7 0.00 0.00 0.00 64 1023.1
20260906071943 65 310 0.9 0.9 0.00 0.00 0.00 64 1023.0
20260906071439 65 309 0.9 0.9 0.00 0.00 0.00 64 1023.0
20260906070935 65 304 0.9 0.9 0.00 0.00 0.00 64 1023.1
20260906070431 64 294 1.7 1.7 0.00 0.00 0.00 64 1023.4
20260906065926 64 294 0.9 0.9 0.00 0.00 0.00 64 1023.4
20260906065420 63 294 0.0 0.9 0.00 0.00 0.00 66 1023.2
20260906064916 62 294 0.0 0.0 0.00 0.00 0.00 67 1023.2
20260906064413 62 294 0.9 0.9 0.00 0.00 0.00 69 1023.2
20260906063912 63 294 0.0 0.0 0.00 0.00 0.00 67 1023.6
20260906063408 63 294 0.0 0.0 0.00 0.00 0.00 66 1023.4
20260906062902 63 294 0.0 0.0 0.00 0.00 0.00 65 1023.5
20260906062402 64 294 0.9 0.9 0.00 0.00 0.00 64 1023.4
20260906061857 64 294 0.0 0.9 0.00 0.00 0.00 62 1023.4
20260906061354 64 294 0.0 0.9 0.00 0.00 0.00 63 1023.2
20260906060848 64 294 0.0 0.0 0.00 0.00 0.00 63 1023.1
20260906060346 64 294 0.9 0.9 0.00 0.00 0.00 63 1023.0
20260906055841 64 294 0.9 0.9 0.00 0.01 0.01 63 1023.4
20260906055337 65 294 0.0 0.0 0.00 0.01 0.01 62 1023.4
20260906054832 65 294 0.0 0.0 0.00 0.01 0.01 61 1023.4
20260906054327 66 294 0.0 0.0 0.00 0.01 0.01 61 1022.9
20260906053824 66 294 0.0 0.0 0.00 0.01 0.01 59 1023.0
20260906053319 67 294 0.0 0.0 0.00 0.01 0.01 59 1023.0
20260906052814 66 294 0.9 0.9 0.00 0.01 0.01 58 1023.0
20260906052310 67 294 0.0 0.0 0.00 0.01 0.01 57 1023.1
20260906051807 67 294 0.0 0.0 0.00 0.01 0.01 56 1023.0
20260906051307 67 294 0.0 0.0 0.00 0.01 0.01 56 1022.9
20260906050802 68 294 0.0 0.0 0.00 0.01 0.01 55 1023.0
20260906050257 68 292 0.9 0.9 0.00 0.01 0.01 54 1023.1
20260906045756 68 299 0.0 0.9 0.00 0.01 0.01 53 1023.0
20260906045250 68 299 0.0 0.0 0.00 0.01 0.01 54 1023.1
20260906044747 69 299 1.7 1.7 0.00 0.01 0.01 52 1022.9
20260906044241 69 300 0.9 0.9 0.00 0.01 0.01 51 1023.1
20260906043737 70 298 0.9 1.7 0.00 0.01 0.01 50 1023.2
20260906043233 70 298 0.0 0.9 0.00 0.01 0.01 49 1023.1
20260906042733 70 300 0.9 0.9 0.00 0.01 0.01 50 1023.1
20260906042232 70 300 0.9 1.7 0.00 0.01 0.01 50 1023.4
20260906041727 70 301 0.9 0.9 0.00 0.01 0.01 50 1023.5
20260906041223 70 303 0.9 0.9 0.00 0.01 0.01 49 1023.2
20260906040718 71 304 0.0 0.0 0.00 0.01 0.01 47 1023.2
20260906040214 71 303 0.0 0.9 0.00 0.01 0.01 46 1023.1
20260906035709 72 303 0.0 0.9 0.00 0.01 0.01 46 1023.1
20260906035205 72 293 1.7 1.7 0.00 0.01 0.01 45 1023.4
20260906034704 73 290 0.9 0.9 0.00 0.01 0.01 44 1023.2
20260906034159 72 293 0.0 0.0 0.00 0.01 0.01 45 1023.4
20260906033655 72 294 2.6 2.6 0.00 0.01 0.01 44 1023.4
20260906033156 72 293 0.0 0.0 0.00 0.01 0.01 45 1023.2
20260906032652 72 293 0.9 0.9 0.00 0.01 0.01 45 1023.2
20260906032152 72 293 0.9 1.7 0.00 0.01 0.01 46 1023.2
20260906031647 72 293 0.0 0.9 0.00 0.01 0.01 46 1023.1
20260906031143 71 282 3.5 5.2 0.00 0.01 0.01 46 1023.0
20260906030642 72 294 0.0 0.9 0.00 0.01 0.01 46 1023.1
20260906030137 72 294 0.9 0.9 0.00 0.01 0.01 45 1023.0
20260906025637 72 295 0.9 0.9 0.00 0.01 0.01 45 1022.8
20260906025136 72 296 0.0 0.9 0.00 0.01 0.01 45 1022.6
20260906024630 73 296 0.0 0.9 0.00 0.01 0.01 44 1022.5
20260906024125 73 295 1.7 1.7 0.00 0.01 0.01 43 1022.5
20260906023621 73 333 0.0 0.9 0.00 0.01 0.01 44 1022.3
20260906023120 74 333 0.0 0.0 0.00 0.01 0.01 43 1022.4
20260906022616 73 321 0.0 0.0 0.00 0.01 0.01 41 1022.2
20260906022111 74 312 0.9 0.9 0.00 0.01 0.01 41 1022.2
20260906021607 75 307 0.9 0.9 0.00 0.01 0.01 37 1021.9
20260906021106 75 273 2.6 3.5 0.00 0.01 0.01 36 1021.6
20260906020605 76 279 0.9 0.9 0.00 0.01 0.01 37 1021.6
20260906020100 76 284 3.5 5.2 0.00 0.01 0.01 37 1021.4
20260906015600 76 285 2.6 2.6 0.00 0.01 0.01 37 1021.6
20260906015059 77 281 3.5 3.5 0.00 0.01 0.01 37 1021.4
20260906014554 77 284 1.7 2.6 0.00 0.01 0.01 36 1021.3
20260906014050 77 306 2.6 3.5 0.00 0.01 0.01 36 1021.2
20260906013545 77 287 4.3 5.2 0.00 0.01 0.01 36 1021.3
20260906013040 77 299 1.7 1.7 0.00 0.01 0.01 36 1021.1
20260906012535 78 293 1.7 2.6 0.00 0.01 0.01 36 1021.3
20260906012035 78 286 3.5 6.1 0.00 0.01 0.01 36 1021.3
20260906011531 78 276 2.6 2.6 0.00 0.01 0.01 36 1021.3
20260906011031 78 283 2.6 2.6 0.00 0.01 0.01 36 1021.3
20260906010526 79 305 0.9 1.7 0.00 0.01 0.01 36 1021.4
20260906010022 78 286 1.7 2.6 0.00 0.01 0.01 37 1021.3
20260906005521 78 303 1.7 1.7 0.00 0.01 0.01 39 1021.6
20260906005021 78 299 1.7 1.7 0.00 0.01 0.01 40 1021.6
20260906004515 79 311 0.9 0.9 0.00 0.01 0.01 43 1021.6
20260906004010 80 311 0.0 0.0 0.00 0.01 0.01 40 1021.3
20260906003505 82 311 0.0 0.9 0.00 0.01 0.01 36 1021.3
20260906003001 82 311 0.0 0.0 0.00 0.01 0.01 31 1021.4
20260906002501 83 311 0.0 0.0 0.00 0.01 0.01 29 1021.3
20260906001955 83 311 0.0 0.0 0.00 0.01 0.01 30 1021.4
20260906001452 84 311 0.0 0.0 0.00 0.01 0.01 30 1021.6
20260906000946 85 311 0.0 0.0 0.00 0.01 0.01 29 1021.6
20260906000442 85 311 0.0 0.0 0.00 0.01 0.01 29 1021.2
20260905235936 85 311 0.0 0.0 0.00 0.01 0.01 27 1021.3
20260905235436 85 311 0.9 0.9 0.00 0.01 0.01 26 1021.3
20260905234931 85 312 0.0 0.0 0.00 0.01 0.01 29 1021.4
20260905234427 85 312 0.0 0.0 0.00 0.01 0.01 28 1021.4
20260905233926 86 312 0.0 0.9 0.00 0.01 0.01 28 1021.3
20260905233422 87 311 0.0 0.0 0.00 0.01 0.01 27 1021.2
20260905232921 89 294 1.7 1.7 0.00 0.01 0.01 24 1021.2
20260905232417 88 297 0.9 1.7 0.00 0.01 0.01 24 1021.3
20260905231912 88 300 0.9 1.7 0.00 0.01 0.01 24 1021.4
20260905231408 87 316 0.0 0.0 0.00 0.01 0.01 26 1021.3
20260905230905 86 304 1.7 2.6 0.00 0.01 0.01 25 1021.4
20260905230403 86 292 0.9 1.7 0.00 0.01 0.01 27 1021.4
20260905225901 85 315 0.0 0.9 0.00 0.01 0.01 29 1021.6
20260905225356 85 322 1.7 1.7 0.00 0.01 0.01 26 1021.6
20260905224851 85 319 0.0 0.9 0.00 0.01 0.01 28 1021.7
20260905224347 85 337 1.7 1.7 0.00 0.01 0.01 28 1021.4
20260905223841 85 319 1.7 1.7 0.00 0.01 0.01 27 1021.4
20260905223340 85 279 2.6 3.5 0.00 0.01 0.01 26 1021.6
20260905222840 86 328 4.3 6.1 0.00 0.01 0.01 26 1021.7
20260905222338 86 315 0.9 0.9 0.00 0.01 0.01 27 1021.3
20260905221835 86 331 0.9 0.9 0.00 0.01 0.01 25 1021.7
20260905221331 87 312 0.9 0.9 0.00 0.01 0.01 30 1021.7
20260905220827 86 302 1.7 2.6 0.00 0.01 0.01 27 1021.7
20260905220323 84 315 0.0 0.0 0.00 0.01 0.01 33 1021.7
20260905215822 83 303 1.7 2.6 0.00 0.01 0.01 31 1021.6
20260905215318 83 295 2.6 2.6 0.00 0.01 0.01 31 1021.7